Погода в Белореченском

Россия / Воронежская область     50°31′33″N   39°38′57″E
В апреле 2022 года жителям России запретили посещать сайт meteo.paraplan.net по решению Генеральной прокуратуры. Аудитория сайта уменьшилась в 10 раз. Владельцы сайта не видят смысла в поддержке погодного сервера в таких условиях. Сайт будет закрыт в октябре.
темп.,
°C
ветер,
м/с
пор.,
м/с
влажн.,
%
обл.,
%
осадки,
мм/ч
давл.,
гПа
погр.,
м
3 октября, пн
пн300:00+19ююв81663100 0.3 998739
03:00+16ююв81487100 2.7 997924
06:00+13юз71188100 7.2 999925
09:00+11юз8127399 7.4 10031554
12:00+12юз8146796 0.1 10061581
15:00+14ююз81264100 0.3 10081552
18:00+13ююз6116698 0.2 1010530
21:00+12ююз511706 0.3 1012419
4 октября, вт
вт400:00+10ю412735 0.0 1012299
03:00+10ю5137179 0.0 1013304
06:00+9ююв367835 0.0 1014103
09:00+13ю5117397 0.0 1015596
12:00+13ююв5117151 0.2 1014767
15:00+17ююз7115961 0.8 10141707
18:00+14ююз5107036 1.3 1015283
21:00+11юз337848 1.5 101636
5 октября, ср
ср500:00+12юз3776100 0.0 1017189
03:00+10юз497713 0.0 1018310
06:00+8юз410825 0.0 1019257
09:00+11юз610700 0.0 1020646
12:00+14зюз79572 0.0 10201243
15:00+15зюз5954100 0.0 10191858
18:00+11з487383 0.3 1021499
21:00+10з487616 0.3 1022646
6 октября, чт
чт600:00+7з498814 0.0 1022329
03:00+7з3894100 0.0 1023212
06:00+7зюз488856 0.0 1023276
09:00+9зюз4984100 0.0 1023355
12:00+11з6974100 0.0 1023656
15:00+15з676072 0.0 10221356
18:00+12з347522 0.0 102368
21:00+10зюз368229 0.0 102392
7 октября, пт
пт700:00+10юз4108498 0.0 1023197
03:00+10зюз410835 0.0 1023234
06:00+8зюз49925 0.0 1022177
09:00+12з58790 0.0 1023346
12:00+17зсз566745 0.0 1023848
15:00+18сз56540 0.0 10231162
18:00+13сз33650 0.0 102446
21:00+11ссз22712 0.0 102510